Other Public Products
Issued by NWS Charleston, SC

Current Version | Previous Version | Graphics & Text | Print | Product List | Glossary On
Versions: 1 2 3 4 5 6 7 8 9 10 11 12 13 14 15 16 17 18 19 20 21 22 23 24 25 26 27 28 29 30 31 32 33 34 35 36 37 38 39 40 41 42 43 44 45 46 47 48 49 50
293
FPUS82 KCHS 050012
OPUCHS

TEST...KCHS/KSAV Gateway Observations...TEST
National Weather Service Charleston SC
700 PM EST SUN DEC 04 2016

NOTE: "fair" indicates few or no clouds below 12,000 feet with no
significant weather and/or obstructions to visibility.

SCZ050-WAZ558-NCZ071-TXZ119-213-PAZ071-DCZ001-FLZ074-172-MI076-
NYZ176-178-MAZ016-IL014-TNZ027-NJZ106-GAZ044-MD014-050100-
...Gateway Observations for Charleston International...

CITY           SKY/WX    TMP DP  RH WIND       PRES   REMARKS
Chas Airport   CLOUDY    57  50  77 E10       30.06F
6HR MIN TEMP:  57; 6HR MAX TEMP:  61;

Seattle        PTCLDY    42  35  76 S3        30.09R
6HR MIN TEMP:  37; 6HR MAX TEMP:  44; 6HR PCP: TRACE;

Charlotte      LGT RAIN  42  39  89 NE6       30.13F
6HR MIN TEMP:  41; 6HR MAX TEMP:  43; 6HR PCP:  0.10;

Dallas DFW     CLOUDY    52  42  69 N15       30.03S
6HR MIN TEMP:  51; 6HR MAX TEMP:  53;

Dallas Love    CLOUDY    52  43  71 N10G21    30.04S
6HR MIN TEMP:  51; 6HR MAX TEMP:  53;

Philladelphia  CLOUDY    44  28  53 SW5       30.19S
6HR MIN TEMP:  43; 6HR MAX TEMP:  48;

Wash National  CLOUDY    45  31  58 S9        30.18F
6HR MIN TEMP:  45; 6HR MAX TEMP:  47;

Baltimore      CLOUDY    43  32  65 SE6       30.17F
6HR MIN TEMP:  42; 6HR MAX TEMP:  47;

Miami          CLOUDY    77  69  76 E13       30.04R
6HR MIN TEMP:  77; 6HR MAX TEMP:  81;

Detroit        LGT SNOW  36  30  79 E7        29.93F WCI  30
6HR MIN TEMP:  36; 6HR MAX TEMP:  39; 6HR PCP: TRACE;

Newark         CLOUDY    44  23  43 NE6       30.18F
6HR MIN TEMP:  41; 6HR MAX TEMP:  48;

Laguardia      CLOUDY    44  24  45 E9        30.19F
6HR MIN TEMP:  44; 6HR MAX TEMP:  48;

J F K          MOCLDY    40  22  48 E6        30.20F WCI  36
6HR MIN TEMP:  39; 6HR MAX TEMP:  48;

Boston Logan   CLEAR     36  20  52 N8        30.20R WCI  30
6HR MIN TEMP:  36; 6HR MAX TEMP:  42;

Ft. Lauderdale MOCLDY    77  68  73 SE13      30.03S
6HR MIN TEMP:  77; 6HR MAX TEMP:  80; 6HR PCP: TRACE;

Chicago O`Hare LGT SNOW  32  31  96 CALM      29.89F VSB 1
6HR MIN TEMP:  31; 6HR MAX TEMP:  32; 6HR PCP:  0.41;

Chicago Midway LGT SNOW  33  30  88 NW3       29.90S FOG
6HR MIN TEMP:  32; 6HR MAX TEMP:  33; 6HR PCP:  0.41;

Houston Bush   LGT RAIN  52  50  93 N13       29.95R
6HR MIN TEMP:  52; 6HR MAX TEMP:  53; 6HR PCP:  0.08;

Houston Hobby  CLOUDY    54  51  90 N13       29.93R
6HR MIN TEMP:  53; 6HR MAX TEMP:  54; 6HR PCP:  0.06;

Nashville      DRIZZLE   48  46  93 CALM      29.99R FOG
6HR MIN TEMP:  48; 6HR MAX TEMP:  48; 6HR PCP:  0.03;

Atlanta        DRIZZLE   45  45 100 E13       30.04R FOG
6HR MIN TEMP:  45; 6HR MAX TEMP:  45; 6HR PCP:  0.05;


$$

GAZ044-118-TXZ119-213-NCZ071-DCZ001-MDZ014-506-PAZ021-071-NJZ106-
NYZ176-178-MAZ106-OHZ011-021-055-MIZ076-KYZ091-ILZ014-INZ047-
MNZ060-050100-
...Gateway Observations for Savannah International...

CITY           SKY/WX    TMP DP  RH WIND       PRES   REMARKS
Savannah Arpt  CLOUDY    62  55  77 NE3       30.04S
6HR MIN TEMP:  61; 6HR MAX TEMP:  64; 6HR PCP: TRACE;

Atlanta        DRIZZLE   45  45 100 E13       30.04R FOG
6HR MIN TEMP:  45; 6HR MAX TEMP:  45; 6HR PCP:  0.05;

Charlotte      LGT RAIN  42  39  89 NE6       30.13F
6HR MIN TEMP:  41; 6HR MAX TEMP:  43; 6HR PCP:  0.10;

Dallas DFW     CLOUDY    52  42  69 N15       30.03S
6HR MIN TEMP:  51; 6HR MAX TEMP:  53;

Houston Bush   LGT RAIN  52  50  93 N13       29.95R
6HR MIN TEMP:  52; 6HR MAX TEMP:  53; 6HR PCP:  0.08;

Wash National  CLOUDY    45  31  58 S9        30.18F
6HR MIN TEMP:  45; 6HR MAX TEMP:  47;

Wash Dulles    CLOUDY    42  28  57 S6        30.16F
6HR MIN TEMP:  42; 6HR MAX TEMP:  45;

Baltimore      CLOUDY    43  32  65 SE6       30.17F
6HR MIN TEMP:  42; 6HR MAX TEMP:  47;

Philadelphia   CLOUDY    44  28  53 SW5       30.19S
6HR MIN TEMP:  43; 6HR MAX TEMP:  48;

Newark         CLOUDY    44  23  43 NE6       30.18F
6HR MIN TEMP:  41; 6HR MAX TEMP:  48;

Laguardia      CLOUDY    44  24  45 E9        30.19F
6HR MIN TEMP:  44; 6HR MAX TEMP:  48;

J F K          MOCLDY    40  22  48 E6        30.20F WCI  36
6HR MIN TEMP:  39; 6HR MAX TEMP:  48;

Boston         CLEAR     36  20  52 N8        30.20R WCI  30
6HR MIN TEMP:  36; 6HR MAX TEMP:  42;

Pittsburg      CLOUDY    41  29  62 E8        29.94F
6HR MIN TEMP:  41; 6HR MAX TEMP:  42;

Akron          CLOUDY    39  27  62 SE13      29.94F WCI  31
6HR MIN TEMP:  38; 6HR MAX TEMP:  40;

Cleveland      CLOUDY    41  28  60 SE10      29.95F
6HR MIN TEMP:  41; 6HR MAX TEMP:  42;

Cincinnati     LGT RAIN  41  40  96 SE6       29.88F FOG
6HR MIN TEMP:  40; 6HR MAX TEMP:  44; 6HR PCP:  0.07;

Columbus       LGT RAIN  37  35  96 E3        29.92F
Detroit        LGT SNOW  36  30  79 E7        29.93F WCI  30
6HR MIN TEMP:  36; 6HR MAX TEMP:  39; 6HR PCP: TRACE;

Chicago O`Hare LGT SNOW  32  31  96 CALM      29.89F VSB 1
6HR MIN TEMP:  31; 6HR MAX TEMP:  32; 6HR PCP:  0.41;

Minneapolis    CLOUDY    38  32  79 SW8       29.75S WCI  32
6HR MIN TEMP:  34; 6HR MAX TEMP:  38;

Indianapolis   LGT RAIN  40  39  97 SW10      29.87R WCI  33
6HR MIN TEMP:  38; 6HR MAX TEMP:  41; 6HR PCP:  0.25;


$$




USA.gov is the U.S. government's official web portal to all federal, state and local government web resources and services.